Time,TemperatureF,DewpointF,PressureIn,WindDirection,WindDirectionDegrees,WindSpeedMPH,WindSpeedGustMPH,Humidity,HourlyPrecipIn,Conditions,Clouds,dailyrainin,SolarRadiationWatts/m^2,SoftwareType,DateUTC
2013-04-28 00:02:00,50.0,44.0,-100.00,SSE,160,5.0,8.0,80,0.00,,,0.00,0.000000,,2013-04-28 04:02:00,
2013-04-28 00:12:00,49.0,44.0,-100.00,South,173,3.0,9.0,82,0.00,,,0.00,0.000000,,2013-04-28 04:12:00,
2013-04-28 00:32:00,49.0,44.0,-100.00,South,173,3.0,9.0,82,0.00,,,0.00,0.000000,,2013-04-28 04:32:00,
2013-04-28 00:43:00,49.0,44.0,-100.00,South,173,3.0,9.0,82,0.00,,,0.00,0.000000,,2013-04-28 04:43:00,
2013-04-28 00:53:00,49.0,44.0,-100.00,South,173,3.0,9.0,82,0.00,,,0.00,0.000000,,2013-04-28 04:53:00,
2013-04-28 01:02:00,49.0,44.0,-100.00,South,173,3.0,9.0,82,0.00,,,0.00,0.000000,,2013-04-28 05:02:00,
2013-04-28 01:12:00,47.0,42.0,-100.00,SSE,168,3.0,7.0,84,0.00,,,0.00,0.000000,,2013-04-28 05:12:00,
2013-04-28 01:32:00,47.0,42.0,-100.00,SSE,168,3.0,7.0,84,0.00,,,0.00,0.000000,,2013-04-28 05:32:00,
2013-04-28 01:42:00,47.0,42.0,-100.00,SSE,168,3.0,7.0,84,0.00,,,0.00,0.000000,,2013-04-28 05:42:00,
2013-04-28 01:52:00,47.0,42.0,-100.00,SSE,168,3.0,7.0,84,0.00,,,0.00,0.000000,,2013-04-28 05:52:00,
2013-04-28 02:01:00,47.0,42.0,-100.00,SSE,168,3.0,7.0,84,0.00,,,0.00,0.000000,,2013-04-28 06:01:00,
2013-04-28 02:32:00,43.0,41.0,-100.00,South,178,2.0,6.0,91,0.00,,,-99.99,0.000000,,2013-04-28 06:32:00,
2013-04-28 02:42:00,43.0,41.0,-100.00,South,178,2.0,6.0,91,0.00,,,-99.99,0.000000,,2013-04-28 06:42:00,
2013-04-28 02:52:00,43.0,41.0,-100.00,South,178,2.0,6.0,91,0.00,,,-99.99,0.000000,,2013-04-28 06:52:00,
2013-04-28 03:01:00,43.0,41.0,-100.00,South,178,2.0,6.0,91,0.00,,,-99.99,0.000000,,2013-04-28 07:01:00,
2013-04-28 03:11:00,43.0,41.0,-100.00,South,178,2.0,6.0,91,0.00,,,-99.99,0.000000,,2013-04-28 07:11:00,
2013-04-28 03:42:00,43.0,41.0,-100.00,South,177,3.0,5.0,91,0.00,,,0.00,0.000000,,2013-04-28 07:42:00,
2013-04-28 03:52:00,43.0,41.0,-100.00,South,177,3.0,5.0,91,0.00,,,0.00,0.000000,,2013-04-28 07:52:00,
2013-04-28 04:02:00,43.0,41.0,-100.00,South,177,3.0,5.0,91,0.00,,,0.00,0.000000,,2013-04-28 08:02:00,
2013-04-28 04:11:00,43.0,41.0,-100.00,South,177,3.0,5.0,91,0.00,,,0.00,0.000000,,2013-04-28 08:11:00,
2013-04-28 04:32:00,44.0,41.0,-100.00,South,178,3.0,6.0,89,0.00,,,0.00,0.000000,,2013-04-28 08:32:00,
2013-04-28 04:42:00,44.0,41.0,-100.00,South,178,3.0,6.0,89,0.00,,,0.00,0.000000,,2013-04-28 08:42:00,
2013-04-28 04:52:00,44.0,41.0,-100.00,South,178,3.0,6.0,89,0.00,,,0.00,0.000000,,2013-04-28 08:52:00,
2013-04-28 05:01:00,44.0,41.0,-100.00,South,178,3.0,6.0,89,0.00,,,0.00,0.000000,,2013-04-28 09:01:00,
2013-04-28 05:11:00,44.0,41.0,-100.00,South,178,3.0,6.0,89,0.00,,,0.00,0.000000,,2013-04-28 09:11:00,
2013-04-28 05:12:00,43.0,41.0,-100.00,South,170,2.0,5.0,91,0.00,,,0.00,0.000000,,2013-04-28 09:12:00,
2013-04-28 05:33:00,43.0,41.0,-100.00,South,170,2.0,5.0,91,0.00,,,0.00,0.000000,,2013-04-28 09:33:00,
2013-04-28 05:42:00,43.0,41.0,-100.00,South,170,2.0,5.0,91,0.00,,,0.00,0.000000,,2013-04-28 09:42:00,
2013-04-28 05:53:00,43.0,41.0,-100.00,South,170,2.0,5.0,91,0.00,,,0.00,0.000000,,2013-04-28 09:53:00,
2013-04-28 06:03:00,43.0,41.0,-100.00,South,170,2.0,5.0,91,0.00,,,0.00,0.000000,,2013-04-28 10:03:00,
2013-04-28 06:32:00,43.0,40.0,-100.00,SSE,165,4.0,7.0,89,0.00,,,0.00,0.000000,,2013-04-28 10:32:00,
2013-04-28 06:42:00,43.0,40.0,-100.00,SSE,165,4.0,7.0,89,0.00,,,0.00,0.000000,,2013-04-28 10:42:00,
2013-04-28 06:53:00,43.0,40.0,-100.00,SSE,165,4.0,7.0,89,0.00,,,0.00,0.000000,,2013-04-28 10:53:00,
2013-04-28 07:02:00,43.0,40.0,-100.00,SSE,165,4.0,7.0,89,0.00,,,0.00,0.000000,,2013-04-28 11:02:00,
2013-04-28 07:11:00,43.0,40.0,-100.00,SSE,165,4.0,7.0,89,0.00,,,0.00,0.000000,,2013-04-28 11:11:00,
2013-04-28 07:12:00,41.0,39.0,-100.00,South,173,4.0,6.0,91,0.00,,,0.00,10.000000,,2013-04-28 11:12:00,
2013-04-28 07:32:00,41.0,39.0,-100.00,South,173,4.0,6.0,91,0.00,,,0.00,10.000000,,2013-04-28 11:32:00,
2013-04-28 07:42:00,41.0,39.0,-100.00,South,173,4.0,6.0,91,0.00,,,0.00,10.000000,,2013-04-28 11:42:00,
2013-04-28 07:52:00,41.0,39.0,-100.00,South,173,4.0,6.0,91,0.00,,,0.00,10.000000,,2013-04-28 11:52:00,
2013-04-28 08:02:00,41.0,39.0,-100.00,South,173,4.0,6.0,91,0.00,,,0.00,10.000000,,2013-04-28 12:02:00,
2013-04-28 08:42:00,47.0,41.0,-100.00,South,174,3.0,5.0,81,0.00,,,0.00,107.000000,,2013-04-28 12:42:00,
2013-04-28 08:52:00,47.0,41.0,-100.00,South,174,3.0,5.0,81,0.00,,,0.00,107.000000,,2013-04-28 12:52:00,
2013-04-28 09:02:00,47.0,41.0,-100.00,South,174,3.0,5.0,81,0.00,,,0.00,107.000000,,2013-04-28 13:02:00,
2013-04-28 09:11:00,47.0,41.0,-100.00,South,174,3.0,5.0,81,0.00,,,0.00,107.000000,,2013-04-28 13:11:00,
2013-04-28 09:32:00,52.0,43.0,-100.00,South,191,3.0,9.0,71,0.00,,,0.00,244.000000,,2013-04-28 13:32:00,
2013-04-28 09:42:00,52.0,43.0,-100.00,South,191,3.0,9.0,71,0.00,,,0.00,244.000000,,2013-04-28 13:42:00,
2013-04-28 09:52:00,52.0,43.0,-100.00,South,191,3.0,9.0,71,0.00,,,0.00,244.000000,,2013-04-28 13:52:00,
2013-04-28 10:02:00,52.0,43.0,-100.00,South,191,3.0,9.0,71,0.00,,,0.00,244.000000,,2013-04-28 14:02:00,
2013-04-28 10:11:00,52.0,43.0,-100.00,South,191,3.0,9.0,71,0.00,,,0.00,244.000000,,2013-04-28 14:11:00,
2013-04-28 10:12:00,59.0,43.0,-100.00,SSW,203,6.0,12.0,56,0.00,,,0.00,497.000000,,2013-04-28 14:12:00,
2013-04-28 10:32:00,59.0,43.0,-100.00,SSW,203,6.0,12.0,56,0.00,,,0.00,497.000000,,2013-04-28 14:32:00,
2013-04-28 10:42:00,59.0,43.0,-100.00,SSW,203,6.0,12.0,56,0.00,,,0.00,497.000000,,2013-04-28 14:42:00,
2013-04-28 10:52:00,59.0,43.0,-100.00,SSW,203,6.0,12.0,56,0.00,,,0.00,497.000000,,2013-04-28 14:52:00,
2013-04-28 11:02:00,59.0,43.0,-100.00,SSW,203,6.0,12.0,56,0.00,,,0.00,497.000000,,2013-04-28 15:02:00,
2013-04-28 11:12:00,63.0,42.0,-100.00,SSW,212,7.0,14.0,46,0.00,,,0.00,681.000000,,2013-04-28 15:12:00,
2013-04-28 11:33:00,63.0,42.0,-100.00,SSW,212,7.0,14.0,46,0.00,,,0.00,681.000000,,2013-04-28 15:33:00,
2013-04-28 11:42:00,63.0,42.0,-100.00,SSW,212,7.0,14.0,46,0.00,,,0.00,681.000000,,2013-04-28 15:42:00,
2013-04-28 11:53:00,63.0,42.0,-100.00,SSW,212,7.0,14.0,46,0.00,,,0.00,681.000000,,2013-04-28 15:53:00,
2013-04-28 12:03:00,63.0,42.0,-100.00,SSW,212,7.0,14.0,46,0.00,,,0.00,681.000000,,2013-04-28 16:03:00,
2013-04-28 12:12:00,65.0,39.0,-100.00,SSW,197,8.0,16.0,39,0.00,,,0.00,812.000000,,2013-04-28 16:12:00,
2013-04-28 12:43:00,65.0,39.0,-100.00,SSW,197,8.0,16.0,39,0.00,,,0.00,812.000000,,2013-04-28 16:43:00,
2013-04-28 12:52:00,65.0,39.0,-100.00,SSW,197,8.0,16.0,39,0.00,,,0.00,812.000000,,2013-04-28 16:52:00,
2013-04-28 13:02:00,65.0,39.0,-100.00,SSW,197,8.0,16.0,39,0.00,,,0.00,812.000000,,2013-04-28 17:02:00,
2013-04-28 13:12:00,67.0,40.0,-100.00,South,188,7.0,18.0,37,0.00,,,0.00,860.000000,,2013-04-28 17:12:00,
2013-04-28 13:32:00,67.0,40.0,-100.00,South,188,7.0,18.0,37,0.00,,,0.00,860.000000,,2013-04-28 17:32:00,
2013-04-28 13:43:00,67.0,40.0,-100.00,South,188,7.0,18.0,37,0.00,,,0.00,860.000000,,2013-04-28 17:43:00,
2013-04-28 13:52:00,67.0,40.0,-100.00,South,188,7.0,18.0,37,0.00,,,0.00,860.000000,,2013-04-28 17:52:00,
2013-04-28 14:02:00,67.0,40.0,-100.00,South,188,7.0,18.0,37,0.00,,,0.00,860.000000,,2013-04-28 18:02:00,
2013-04-28 14:42:00,68.0,40.0,-100.00,SSW,198,7.0,19.0,36,0.00,,,0.00,899.000000,,2013-04-28 18:42:00,
2013-04-28 14:52:00,68.0,40.0,-100.00,SSW,198,7.0,19.0,36,0.00,,,0.00,899.000000,,2013-04-28 18:52:00,
2013-04-28 15:02:00,68.0,40.0,-100.00,SSW,198,7.0,19.0,36,0.00,,,0.00,899.000000,,2013-04-28 19:02:00,
2013-04-28 15:11:00,68.0,40.0,-100.00,SSW,198,7.0,19.0,36,0.00,,,0.00,899.000000,,2013-04-28 19:11:00,
2013-04-28 15:12:00,70.0,40.0,-100.00,SSW,194,8.0,18.0,34,0.00,,,0.00,831.000000,,2013-04-28 19:12:00,
2013-04-28 15:32:00,70.0,40.0,-100.00,SSW,194,8.0,18.0,34,0.00,,,0.00,831.000000,,2013-04-28 19:32:00,
2013-04-28 15:42:00,70.0,40.0,-100.00,SSW,194,8.0,18.0,34,0.00,,,0.00,831.000000,,2013-04-28 19:42:00,
2013-04-28 15:52:00,70.0,40.0,-100.00,SSW,194,8.0,18.0,34,0.00,,,0.00,831.000000,,2013-04-28 19:52:00,
2013-04-28 16:02:00,70.0,40.0,-100.00,SSW,194,8.0,18.0,34,0.00,,,0.00,831.000000,,2013-04-28 20:02:00,
2013-04-28 16:33:00,70.0,39.0,-100.00,South,176,9.0,16.0,32,0.00,,,0.00,756.000000,,2013-04-28 20:33:00,
2013-04-28 16:42:00,70.0,39.0,-100.00,South,176,9.0,16.0,32,0.00,,,0.00,756.000000,,2013-04-28 20:42:00,
2013-04-28 16:52:00,70.0,39.0,-100.00,South,176,9.0,16.0,32,0.00,,,0.00,756.000000,,2013-04-28 20:52:00,
2013-04-28 17:01:00,70.0,39.0,-100.00,South,176,9.0,16.0,32,0.00,,,0.00,756.000000,,2013-04-28 21:01:00,
2013-04-28 17:11:00,70.0,39.0,-100.00,South,176,9.0,16.0,32,0.00,,,0.00,756.000000,,2013-04-28 21:11:00,
2013-04-28 17:12:00,70.0,38.0,-100.00,SSE,155,7.0,18.0,31,0.00,,,0.00,702.000000,,2013-04-28 21:12:00,
2013-04-28 17:42:00,70.0,38.0,-100.00,SSE,155,7.0,18.0,31,0.00,,,0.00,702.000000,,2013-04-28 21:42:00,
2013-04-28 17:53:00,70.0,38.0,-100.00,SSE,155,7.0,18.0,31,0.00,,,0.00,702.000000,,2013-04-28 21:53:00,
2013-04-28 18:03:00,70.0,38.0,-100.00,SSE,155,7.0,18.0,31,0.00,,,0.00,702.000000,,2013-04-28 22:03:00,
2013-04-28 18:12:00,69.0,37.0,-100.00,SSE,166,6.0,18.0,31,0.00,,,0.00,488.000000,,2013-04-28 22:12:00,
2013-04-28 18:42:00,69.0,37.0,-100.00,SSE,166,6.0,18.0,31,0.00,,,0.00,488.000000,,2013-04-28 22:42:00,
2013-04-28 18:52:00,69.0,37.0,-100.00,SSE,166,6.0,18.0,31,0.00,,,0.00,488.000000,,2013-04-28 22:52:00,
2013-04-28 19:02:00,69.0,37.0,-100.00,SSE,166,6.0,18.0,31,0.00,,,0.00,488.000000,,2013-04-28 23:02:00,
2013-04-28 19:42:00,67.0,36.0,-100.00,SSE,160,9.0,19.0,32,0.00,,,0.00,311.000000,,2013-04-28 23:42:00,
2013-04-28 19:52:00,67.0,36.0,-100.00,SSE,160,9.0,19.0,32,0.00,,,0.00,311.000000,,2013-04-28 23:52:00,
2013-04-28 20:01:00,67.0,36.0,-100.00,SSE,160,9.0,19.0,32,0.00,,,0.00,311.000000,,2013-04-29 00:01:00,
2013-04-28 20:11:00,67.0,36.0,-100.00,SSE,160,9.0,19.0,32,0.00,,,0.00,311.000000,,2013-04-29 00:11:00,
2013-04-28 21:32:00,57.0,34.0,-100.00,SSE,155,5.0,14.0,41,-99.99,,,0.00,16.000000,,2013-04-29 01:32:00,
2013-04-28 21:42:00,57.0,34.0,-100.00,SSE,155,5.0,14.0,41,-99.99,,,0.00,16.000000,,2013-04-29 01:42:00,
2013-04-28 21:52:00,57.0,34.0,-100.00,SSE,155,5.0,14.0,41,-99.99,,,0.00,16.000000,,2013-04-29 01:52:00,
2013-04-28 22:02:00,57.0,34.0,-100.00,SSE,155,5.0,14.0,41,-99.99,,,0.00,16.000000,,2013-04-29 02:02:00,
2013-04-28 22:11:00,57.0,34.0,-100.00,SSE,155,5.0,14.0,41,-99.99,,,0.00,16.000000,,2013-04-29 02:11:00,
2013-04-28 22:12:00,53.0,34.0,-100.00,SSE,159,4.0,12.0,48,0.00,,,0.00,0.000000,,2013-04-29 02:12:00,
2013-04-28 22:42:00,53.0,34.0,-100.00,SSE,159,4.0,12.0,48,0.00,,,0.00,0.000000,,2013-04-29 02:42:00,
2013-04-28 22:52:00,53.0,34.0,-100.00,SSE,159,4.0,12.0,48,0.00,,,0.00,0.000000,,2013-04-29 02:52:00,
2013-04-28 23:01:00,53.0,34.0,-100.00,SSE,159,4.0,12.0,48,0.00,,,0.00,0.000000,,2013-04-29 03:01:00,
2013-04-28 23:12:00,51.0,33.0,-100.00,SSE,168,4.0,8.0,49,0.00,,,0.00,0.000000,,2013-04-29 03:12:00,
2013-04-28 23:33:00,51.0,33.0,-100.00,SSE,168,4.0,8.0,49,0.00,,,0.00,0.000000,,2013-04-29 03:33:00,
2013-04-28 23:43:00,51.0,33.0,-100.00,SSE,168,4.0,8.0,49,0.00,,,0.00,0.000000,,2013-04-29 03:43:00,
2013-04-28 23:53:00,51.0,33.0,-100.00,SSE,168,4.0,8.0,49,0.00,,,0.00,0.000000,,2013-04-29 03:53:00,